User: anonymous   Login
Location: ?????
(32.7281°N, 34.9563°E)
Time: 03:44:56
(UTC+00:00)
Language:

Meteor 2-15 Rocket - Orbit

View from above orbital plane
View from above orbital plane
View from above satellite
View from above satellite

Ground track
Ground track

The orbit data is extracted from the following two-line orbital elements,

1 17291U 87001B   21015.34030254  .00000038  00000-0  20794-4 0  9993
2 17291  82.4666 250.3174 0010889 342.7581  17.3208 13.84584212719446
Epoch (UTC): 15 January 2021 08:10:02
Eccentricity: 0.0010889
inclination: 82.4666°
perigee height: 939 km
apogee height: 955 km
right ascension of ascending node: 250.3174°
argument of perigee: 342.7581°
revolutions per day: 13.84584212
mean anomaly at epoch: 17.3208°
orbit number at epoch: 71944

The dashed part of the orbit path shows where the satellite is in the earth's shadow,  

DLR